| time (UTC) | temp C | wind direction | speed KPH | gust KPH | rain 1hr cm | rain 24hr cm | rain mn cm | humidity % | barometer mb |
| 20260505153025 | 2 | 169 | 0.0 | 0.0 | 0.00 | 0.00 | 0.10 | 92 | 1010.6 |
| 20260505152019 | 2 | 231 | 0.0 | 0.0 | 0.00 | 0.00 | 0.10 | 91 | 1010.4 |
| 20260505125024 | 2 | 252 | 0.0 | 0.0 | 0.00 | 0.00 | 0.05 | 95 | 1011.0 |
| 20260505124039 | 1 | 252 | 0.0 | 0.0 | 0.00 | 0.00 | 0.05 | 94 | 1011.0 |
| 20260505123031 | 1 | 252 | 0.0 | 0.0 | 0.00 | 0.00 | 0.05 | 94 | 1011.0 |
| 20260505122020 | 1 | 252 | 0.0 | 0.0 | 0.00 | 0.00 | 0.05 | 94 | 1011.3 |
| 20260505121021 | 1 | 252 | 0.0 | 0.0 | 0.00 | 0.00 | 0.05 | 94 | 1011.2 |
| 20260505120038 | 1 | 252 | 0.0 | 0.0 | 0.00 | 0.00 | 0.05 | 94 | 1011.3 |
| 20260505115030 | 1 | 252 | 0.0 | 0.0 | 0.00 | 0.00 | 0.05 | 94 | 1011.3 |
| 20260505112034 | 2 | 252 | 0.0 | 0.0 | 0.00 | 0.00 | 0.05 | 94 | 1011.3 |
| 20260505111032 | 2 | 252 | 0.0 | 0.0 | 0.00 | 0.00 | 0.05 | 94 | 1011.5 |
| 20260505102025 | 2 | 252 | 0.0 | 0.0 | 0.00 | 0.00 | 0.05 | 93 | 1011.1 |
| 20260505100029 | 2 | 252 | 0.0 | 0.0 | 0.00 | 0.00 | 0.05 | 93 | 1011.5 |
| 20260505094024 | 2 | 126 | 0.0 | 0.0 | 0.00 | 0.00 | 0.05 | 93 | 1011.5 |
| 20260505093040 | 2 | 126 | 0.0 | 0.0 | 0.00 | 0.00 | 0.05 | 93 | 1011.7 |
| 20260505092032 | 2 | 126 | 0.0 | 0.0 | 0.00 | 0.00 | 0.05 | 93 | 1011.7 |
| 20260505091031 | 2 | 161 | 0.0 | 0.0 | 0.00 | 0.00 | 0.05 | 93 | 1011.7 |
| 20260505090025 | 2 | 240 | 0.0 | 0.0 | 0.00 | 0.00 | 0.03 | 93 | 1012.0 |
| 20260505085022 | 2 | 240 | 0.0 | 0.0 | 0.00 | 0.00 | 0.03 | 94 | 1012.1 |
| 20260505084034 | 2 | 240 | 0.0 | 0.0 | 0.00 | 0.00 | 0.03 | 94 | 1012.3 |
| 20260505083026 | 2 | 240 | 0.0 | 0.0 | 0.00 | 0.00 | 0.03 | 94 | 1012.3 |
| 20260505082030 | 2 | 240 | 0.0 | 0.0 | 0.00 | 0.00 | 0.03 | 94 | 1012.7 |
| 20260505080022 | 2 | 240 | 0.0 | 0.0 | 0.00 | 0.00 | 0.03 | 94 | 1012.6 |
| 20260505075036 | 2 | 240 | 0.0 | 0.0 | 0.00 | 0.00 | 0.03 | 94 | 1012.6 |
| 20260505074028 | 2 | 240 | 0.0 | 0.0 | 0.00 | 0.00 | 0.03 | 94 | 1012.5 |
| 20260505073026 | 2 | 240 | 0.0 | 0.0 | 0.00 | 0.00 | 0.03 | 94 | 1012.4 |
| 20260505072038 | 2 | 240 | 0.0 | 0.0 | 0.00 | 0.00 | 0.03 | 95 | 1013.2 |
| 20260505071031 | 2 | 240 | 0.0 | 0.0 | 0.00 | 0.00 | 0.03 | 95 | 1013.3 |
| 20260505070022 | 2 | 240 | 0.0 | 0.0 | 0.00 | 0.00 | 0.03 | 95 | 1013.2 |
| 20260505065038 | 2 | 240 | 0.0 | 0.0 | 0.00 | 0.00 | 0.03 | 95 | 1013.4 |
| 20260505063031 | 2 | 240 | 0.0 | 0.0 | 0.00 | 0.00 | 0.00 | 95 | 1013.2 |
| 20260505062022 | 2 | 240 | 0.0 | 0.0 | 0.00 | 0.00 | 0.00 | 95 | 1013.3 |
| 20260505061035 | 2 | 240 | 0.0 | 0.0 | 0.00 | 0.00 | 0.00 | 95 | 1013.2 |
| 20260505060029 | 2 | 240 | 0.0 | 0.0 | 0.00 | 0.00 | 0.00 | 94 | 1013.0 |
| 20260505055030 | 2 | 240 | 0.0 | 0.0 | 0.00 | 0.00 | 0.58 | 94 | 1013.2 |
| 20260505054024 | 2 | 240 | 0.0 | 0.0 | 0.00 | 0.00 | 0.58 | 95 | 1013.3 |
| 20260505053036 | 2 | 240 | 0.0 | 0.0 | 0.00 | 0.00 | 0.58 | 94 | 1013.5 |
| 20260505052029 | 1 | 240 | 0.0 | 0.0 | 0.00 | 0.00 | 0.58 | 94 | 1013.6 |
| 20260505051021 | 1 | 240 | 0.0 | 0.0 | 0.00 | 0.00 | 0.58 | 94 | 1013.7 |
| 20260505041034 | 2 | 240 | 0.0 | 0.0 | 0.00 | 0.00 | 0.58 | 94 | 1013.7 |
| 20260505040024 | 2 | 240 | 0.0 | 0.0 | 0.00 | 0.00 | 0.58 | 94 | 1013.4 |
| 20260505035037 | 2 | 240 | 0.0 | 0.0 | 0.00 | 0.00 | 0.58 | 94 | 1013.0 |
| 20260505034029 | 2 | 240 | 0.0 | 0.0 | 0.00 | 0.00 | 0.58 | 93 | 1013.0 |
| 20260505033028 | 2 | 240 | 0.0 | 0.0 | 0.00 | 0.00 | 0.58 | 94 | 1012.8 |
| 20260505032039 | 2 | 240 | 0.0 | 0.0 | 0.00 | 0.00 | 0.58 | 94 | 1013.4 |
| 20260505031027 | 2 | 240 | 0.0 | 0.0 | 0.00 | 0.00 | 0.58 | 94 | 1013.5 |
| 20260505030024 | 2 | 240 | 0.0 | 0.0 | 0.00 | 0.00 | 0.58 | 94 | 1013.3 |
| 20260505025040 | 2 | 240 | 0.0 | 0.0 | 0.00 | 0.00 | 0.58 | 93 | 1013.0 |
| 20260505023032 | 2 | 240 | 0.0 | 0.0 | 0.00 | 0.00 | 0.58 | 93 | 1013.0 |
| 20260505022027 | 2 | 240 | 0.0 | 0.0 | 0.00 | 0.00 | 0.58 | 93 | 1012.8 |
| 20260505021040 | 2 | 240 | 0.0 | 0.0 | 0.00 | 0.00 | 0.58 | 93 | 1013.0 |
| 20260505020031 | 2 | 240 | 0.0 | 0.0 | 0.00 | 0.00 | 0.58 | 93 | 1012.7 |
| 20260505015028 | 2 | 240 | 0.0 | 0.0 | 0.00 | 0.00 | 0.58 | 92 | 1012.4 |
| 20260505013035 | 3 | 240 | 0.0 | 0.0 | 0.00 | 0.00 | 0.58 | 92 | 1012.4 |
| 20260505011023 | 2 | 240 | 1.6 | 0.0 | 0.00 | 0.00 | 0.58 | 92 | 1012.9 |
| 20260505005036 | 3 | 240 | 1.6 | 0.0 | 0.00 | 0.00 | 0.51 | 90 | 1013.0 |
| 20260505004028 | 3 | 240 | 0.0 | 0.0 | 0.00 | 0.00 | 0.43 | 90 | 1013.1 |
| 20260505001030 | 4 | 314 | 3.2 | 0.0 | 0.00 | 0.00 | 0.33 | 86 | 1012.8 |
| 20260505000029 | 5 | 311 | 3.2 | 0.0 | 0.00 | 0.00 | 0.30 | 87 | 1013.1 |
| 20260504235028 | 5 | 195 | 1.6 | 0.0 | 0.00 | 0.00 | 0.30 | 89 | 1012.7 |
| 20260504234022 | 5 | 226 | 0.0 | 0.0 | 0.00 | 0.00 | 0.30 | 89 | 1012.5 |
| 20260504233038 | 5 | 223 | 0.0 | 0.0 | 0.00 | 0.00 | 0.28 | 88 | 1012.2 |
| 20260504232032 | 5 | 223 | 0.0 | 0.0 | 0.00 | 0.00 | 0.23 | 84 | 1012.3 |
| 20260504231027 | 7 | 223 | 1.6 | 0.0 | 0.00 | 0.00 | 0.13 | 78 | 1012.7 |
| 20260504230023 | 9 | 204 | 3.2 | 0.0 | 0.00 | 0.00 | 0.00 | 65 | 1012.5 |
| 20260504225040 | 11 | 269 | 1.6 | 0.0 | 0.00 | 0.00 | 0.00 | 54 | 1012.4 |
| 20260504224035 | 11 | 236 | 3.2 | 0.0 | 0.00 | 0.00 | 0.00 | 52 | 1012.1 |
| 20260504223031 | 11 | 292 | 4.8 | 0.0 | 0.00 | 0.00 | 0.00 | 52 | 1012.2 |
| 20260504222027 | 10 | 124 | 6.4 | 0.0 | 0.00 | 0.00 | 0.00 | 59 | 1012.1 |
| 20260504221022 | 10 | 126 | 1.6 | 0.0 | 0.00 | 0.00 | 0.00 | 59 | 1012.6 |
| 20260504220039 | 10 | 208 | 3.2 | 0.0 | 0.00 | 0.00 | 0.00 | 59 | 1012.7 |
| 20260504215033 | 9 | 191 | 3.2 | 0.0 | 0.00 | 0.00 | 0.00 | 60 | 1012.9 |
| 20260504214027 | 9 | 286 | 4.8 | 0.0 | 0.00 | 0.00 | 0.00 | 61 | 1013.2 |
| 20260504213027 | 9 | 237 | 3.2 | 0.0 | 0.00 | 0.00 | 0.00 | 60 | 1013.0 |
| 20260504212028 | 9 | 197 | 6.4 | 0.0 | 0.00 | 0.00 | 0.00 | 60 | 1013.0 |
| 20260504211021 | 10 | 244 | 3.2 | 0.0 | 0.00 | 0.00 | 0.00 | 60 | 1013.1 |
| 20260504205034 | 8 | 180 | 4.8 | 0.0 | 0.00 | 0.00 | 0.00 | 68 | 1012.9 |
| 20260504204034 | 8 | 166 | 4.8 | 0.0 | 0.00 | 0.00 | 0.00 | 65 | 1013.0 |
| 20260504203030 | 9 | 195 | 8.0 | 0.0 | 0.00 | 0.00 | 0.00 | 60 | 1013.2 |
| 20260504202030 | 11 | 200 | 3.2 | 0.0 | 0.00 | 0.00 | 0.00 | 48 | 1013.1 |
| 20260504201023 | 11 | 163 | 4.8 | 0.0 | 0.00 | 0.00 | 0.00 | 49 | 1013.1 |
| 20260504200023 | 10 | 163 | 1.6 | 0.0 | 0.00 | 0.00 | 0.00 | 50 | 1013.1 |
| 20260504195040 | 8 | 155 | 1.6 | 0.0 | 0.00 | 0.00 | 0.00 | 55 | 1013.3 |
| 20260504193037 | 10 | 218 | 4.8 | 0.0 | 0.00 | 0.00 | 0.00 | 54 | 1014.1 |
| 20260504192033 | 10 | 360 | 3.2 | 0.0 | 0.00 | 0.00 | 0.00 | 53 | 1013.7 |
| 20260504190031 | 11 | 337 | 6.4 | 0.0 | 0.00 | 0.00 | 0.00 | 54 | 1013.9 |
| 20260504185027 | 10 | 290 | 6.4 | 0.0 | 0.00 | 0.00 | 0.00 | 54 | 1014.0 |
| 20260504183022 | 10 | 349 | 1.6 | 0.0 | 0.00 | 0.00 | 0.00 | 55 | 1014.4 |
| 20260504182020 | 10 | 226 | 3.2 | 0.0 | 0.00 | 0.00 | 0.00 | 53 | 1014.4 |
| 20260504181035 | 10 | 257 | 1.6 | 0.0 | 0.00 | 0.00 | 0.00 | 56 | 1014.6 |
| 20260504180033 | 11 | 184 | 0.0 | 0.0 | 0.00 | 0.00 | 0.00 | 50 | 1014.6 |
| 20260504175030 | 11 | 284 | 1.6 | 0.0 | 0.00 | 0.00 | 0.00 | 49 | 1014.5 |
| 20260504174029 | 11 | 202 | 4.8 | 0.0 | 0.00 | 0.00 | 0.00 | 54 | 1014.7 |
| 20260504173029 | 11 | 238 | 3.2 | 0.0 | 0.00 | 0.00 | 0.00 | 51 | 1014.8 |
| 20260504172021 | 10 | 240 | 3.2 | 0.0 | 0.00 | 0.00 | 0.00 | 56 | 1015.0 |